Regional Weather Roundup
Issued by NWS Jackson, KY

Home | Current Version | Previous Version | Graphics & Text | Print | Product List | Glossary On
Versions: 1 2 3 4 5 6 7 8 9 10 11 12 13 14 15 16 17 18 19 20 21 22 23 24 25 26 27 28 29 30 31 32 33 34 35 36 37 38 39 40 41 42 43 44 45 46 47 48 49 50
000
ASUS43 KJKL 222210
RWRJKL

EAST KENTUCKY HOURLY WEATHER ROUNDUP
NATIONAL WEATHER SERVICE JACKSON KY
600 PM EDT TUE JUL 22 2014

NOTE: "FAIR" INDICATES FEW OR NO CLOUDS BELOW 12,000 FEET WITH
NO SIGNIFICANT WEATHER AND/OR OBSTRUCTIONS TO VISIBILITY.

* THESE REPORTS ARE NOT UNDER NWS QUALITY CONTROL AND MAY NOT
  REPORT WEATHER SUCH AS PRECIPITATION AND FOG.

KYZ079-080-083-085-087-088-110-112-115-119-120-222300
...EASTERN KENTUCKY...

CITY           SKY/WX    TMP DP  RH WIND       PRES   REMARKS
JACKSON        SUNNY     88  70  55 CALM      30.09F HX  93
LONDON         SUNNY     89  67  47 CALM      30.09S HX  92
SOMERSET*      PTSUNNY   88  68  51 W5        30.08S HX  91
MONTICELLO*    SUNNY     90  71  53 CALM      30.09S HX  96
WILLIAMSBURG*  MOSUNNY   86  72  62 CALM      30.08F HX  92
MIDDLESBORO*   SUNNY     88  68  50 S3        30.09F HX  91
HARLAN APT*    CLEAR     86  63  45 MISG      30.11F
HAZARD APT*    PTCLDY    88  66  48 S3        30.09  HX  90
BLACK MTN*       N/A     75  64  69 S3          N/A
PIKEVILLE APT* SUNNY     84  68  58 CALM      30.10F
BIG SANDY*     CLEAR     88  69  54 CALM      30.09S HX  92
MOREHEAD APT*    N/A     88  72  58 S3        30.09S HX  94
$$

KYZ035-036-041-042-044-050-067-078-099-222300
...CENTRAL KENTUCKY...

CITY           SKY/WX    TMP DP  RH WIND       PRES   REMARKS
MT STERLING*   MOSUNNY   88  73  62 CALM      30.07F HX  96
FLEMING/MASON* MOSUNNY   91  70  49 W6        30.06S HX  96
DANVILLE*      MOSUNNY   90  70  51 W3        30.07F HX  95
RICHMOND*      MOSUNNY   88  70  55 W6        30.06F HX  92
LEXINGTON      SUNNY     90  70  51 W6        30.06F HX  95
FRANKFORT      MOSUNNY   90  68  48 SW7       30.04F HX  94
$$

KYZ091>093-OHZ055-061-077-WVZ005-015-034-035-042-222300
...SOUTHERN OHIO/WEST VIRGINIA...

CITY           SKY/WX    TMP DP  RH WIND       PRES   REMARKS
COVINGTON      MOSUNNY   89  66  46 W8        30.05F HX  91
COLUMBUS       MOSUNNY   90  66  45 SW12      30.04S HX  92
DAYTON         MOSUNNY   88  67  49 W10       30.06F HX  91
WILMINGTON     SUNNY     88  67  49 S6        30.05F HX  91
HUNTINGTON     SUNNY     88  70  55 SE6       30.05F HX  93
CHARLESTON     MOSUNNY   90  69  50 W3        30.06F HX  94
PINEVILLE*     CLOUDY    91  70  51 MISG      30.16S HX  96
BECKLEY        MOSUNNY   83  63  50 S5        30.17S
BLUEFIELD      SUNNY     83  62  49 VRB3      30.20S
$$

VAZ002-007-008-TNZ017-027-036-066-071-222300
...SOUTHWEST VIRGINIA/EAST TENNESSEE...

CITY           SKY/WX    TMP DP  RH WIND       PRES   REMARKS
WISE*          MOSUNNY   82  61  47 CALM      30.19F
JONESVILLE*    CLEAR     86  66  51 CALM      30.12F
ABINGDON*      SUNNY     87  62  42 CALM      30.15S
BRISTOL        MOSUNNY   87  66  49 N5        30.10F
KNOXVILLE      PTSUNNY   85  68  56 NW3       30.07S
OAK RIDGE      MOSUNNY   88  70  55 VRB3      30.09S HX  93
CROSSVILLE     PTSUNNY   84  67  56 VRB5      30.14S
NASHVILLE      PTSUNNY   89  70  53 S6        30.05F HX  94
$$

...KEY TO REMARKS...
VSB - VISIBILITY IN MILES
WCI - WIND CHILL INDEX
HX  - HEAT INDEX

$$



USA.gov is the U.S. government's official web portal to all federal, state and local government web resources and services.